Zurück zum Katalog

SL-8 DEB

AktivLEO
NORAD 21138·DEBRIS·🇷🇺 Russia

Gestartet Feb 12, 1991 von Plesetsk Cosmodrome

Loading…

Nächste Überflüge (nächste 24 Stunden)

TLE

AktuellSource: Space-Track

Epoche: Sep 14, 2026, 12:28 UTC

1 21138U 91009Q   26257.52005855  .00000013  00000-0  21197-3 0  9993
2 21138  74.0828 181.1203 0216129 114.2130 358.4650 12.29192480596824

Verfolge SL-8 DEB in Echtzeit mit AllMySat

Download on the App Store